Location: Bartshausen
(51.8454°N, 9.8167°E)
Time: 01:24:02
(UTC+00:00)

Cosmos 1674 Rocket - Pass Details

Date: 08 November 2025
Orbit: 595 x 623 km, 82.5° (Epoch: 13 December)

Event Time Altitude Azimuth Distance (km) Brightness Sun altitude
Rises 05:41:26 0° 180° (S) 2,892 7.2 -7.5°
Reaches altitude 10° 05:43:40 10° 177° (S) 1,992 6.5 -7.2°
Maximum altitude 05:48:02 63° 96° (E) 699 4.2 -6.5°
Drops below altitude 10° 05:52:26 10° 16° (NNE) 2,009 6.2 -5.9°
Sets 05:54:41 0° 13° (NNE) 2,918 6.9 -5.6°
